RUZAEVKA 390 (RS44S)

Last updated on Mon Sep 15 2025 00:03:09 GMT+0000 (Coordinated Universal Time)

1 61766U 24199AH 25257.27354512 .00031699 00000+0 63484-3 0 9996 2 61766 97.3350 127.9637 0009152 166.7107 193.4385 15.46642619 91934
UTC large
Height (km)
Speed (km/s)
/
Latitude / Longitude
Inclination (degrees)
Orbital Period (minutes)
Azimuth
Elevation
Range (km)
Doppler Factor

Next 0 passes for location: London (51.5072 / 0.1276)

Sorry there are no passes over London.